星链-36998(STARLINK-36998)

导读

STARLINK-36998(NORAD编号68286)是美国SpaceX公司星链(Starlink)星座的一员,属于低轨宽带通信卫星。星链项目旨在通过近地轨道卫星组网,为全球尤其是偏远地区提供高速低延迟互联网接入服务,目前已完成大规模部署并持续扩展。 该卫星运行于近地轨道,是SpaceX万颗星链组网计划的组成部分,配备相控阵天线等技术,支持多用户通信与高效频谱利用。2026年SpaceX启动降轨计划,将包括STARLINK-36998在内的数千颗星链卫星轨道高度从550公里降至480公里,以降低碰撞风险,减少太空碎片隐患,提升太空运行安全性。

Basic Information
目录编号:
68286
目录名称:
STARLINK-36998
国际标识:
2026-055AA
轨道中心:
EARTH
卫星名称:
星链-36998
卫星全名:
星链-36998(STARLINK-36998)
卫星状态:
在轨 (已飞行176 天)
发射日期:
2026-03-19 UTC
国别 :
美国 (US)
星等 :
--
This satellite is enrolled in the Space Conjunction Data Service (SCDS) and the current flight risk assessment level is: No High Risk
Orbit Information
数据来源 国际轨道数据
星历时间: 2026-09-11T20:11:14+0800
8小时前
查看轨道信息
半长轴: 6840.741km
偏心率: 0.0001351
轨道倾角: 53.159°
近地点辐角 76.225°
升交点赤经 171.659°
平近点角 283.891°
近地点: 461.679km
远地点: 463.529km
周期: 93.846分钟
每日圈数: 15.344335
Detailed Information
固有亮度:
5
最大亮度:
2.5
卫星平台:
Starlink V1.0
覆盖范围:
全球
运营商:
太空探索技术公司
运营商所在国:
美国
制造商(研发单位):
太空探索技术公司
制造商所在国:
美国
使用方式:
暂无
Satellite Introduction
Starlink 计划是 SpaceX 推出的全球卫星互联网项目,通过发射低轨道卫星,为全球尤其是偏远地区提供高速、低延迟的互联网服务。自 2019 年起,Starlink 已部署数千颗卫星,旨在缩小全球数字鸿沟,推动互联网普及。该项目还为军事、航空等行业提供通信支持,带来广泛经济效益。
2D Orbit Map
3D Orbit Map
Orbit Altitude Analysis Chart
Orbit Inclination Analysis Chart
Orbit Comprehensive Analysis Chart
View Comprehensive Chart
Conjunction Data List
Event ID Objects TCA Miss Dist (km) Collision Risk Probability Collision Risk Index (CRI) Action
CDM_260913-073906-410606-828621
2026-09-13T
07:39:32+0000
0.375 km
远距离
2.452954E-4 高风险 0.83
CDM_260912-182206-410606-828621
2026-09-12T
18:22:20+0000
0.536 km
远距离
1.093052E-4 高风险 0.76
CDM_260914-015106-447806-828621
2026-09-14T
01:51:22+0000
1.266 km
极远距离
1.032282E-5 中风险 0.55
CDM_260914-001706-447806-828621
2026-09-14T
00:17:35+0000
1.297 km
极远距离
9.502969E-6 低风险 0.55
CDM_260912-195606-410606-828621
2026-09-12T
19:56:07+0000
1.710 km
极远距离
2.690157E-6 低风险 0.44
CDM_260914-063806-151306-828621
2026-09-14T
06:38:17+0000
2.226 km
极远距离
1.969404E-6 低风险 0.41
CDM_260914-050406-151306-828621
2026-09-14T
05:04:29+0000
2.497 km
极远距离
1.569377E-6 低风险 0.39
CDM_260913-091306-410606-828621
2026-09-13T
09:13:19+0000
2.308 km
极远距离
1.295002E-6 低风险 0.37
CDM_260912-164806-410606-828621
2026-09-12T
16:48:33+0000
2.615 km
极远距离
1.042714E-6 低风险 0.35
CDM_260913-060506-410606-828621
2026-09-13T
06:05:45+0000
2.746 km
极远距离
9.703636E-7 极低风险 0.35
Miss Distance Evolution Trend with All Objects
Collision Probability Evolution Trend with All Objects